(103) Hera
ephemeris date magn radius delta ra dec elong phase
Today15 Sep 202513.62.897 AU3.618 AU09h03m+15°38'38.3°12.4°
Opposition19 Feb 202611.62.920 AU1.932 AU10h17m+12°57'177.6°0.8°
(103) Hera - 2025-09-15
astro.vanbuitenen.nl


 
-1 year
-1 month
-1 day
Now
+1 day
+1 month
+1 year

The interactive orbit chart above shows the body's path through the solar system and its position at the given date. Green and blue lines are shown perpendicular to the ecliptic plane: Green if the path is above the ecliptic plane, blue if it is below. (Left-click and drag to rotate the view; Right-click and drag to move the view; Use scroll wheel to zoom in our out.)

The orbital elements of Hera are:

            e (Eccentricity)                : 0.0801521
            a (Semimajor axis)              : 2.7045465
            i (Inclination)                 : 5.42148
            Ω (Longitude of ascending node) : 135.97346
            ω (Argument of perihelion)      : 190.38520
            M (Mean anomaly)                : 121.30224
            Epoch                           : 2025 May 05

            L (Longitude of perihelion)     : 146.31321
            B (Latitude of perihelion)      : -0.97589
            P (Orbital period in years)     : 4.45            
        

The light curve chart below shows the estimated development of the minor planet's magnitude.


The all-sky chart below shows the path of the minor planet over the same period as the light curve. The current position is marked yellow.





The following chart shows the path of the minor planet in the next few days. The field of view is optimized for (~10x50) binoculars and finderscopes. A more printer-friendly version of the same chart can be found below.




Ephemerides:
Date       Time       RA (2000)    DEC (2000)    delta   radius  elong  phase   PA    magn
2025-09-15 00:00 UT   09 03 31.6   +15 38 42     3.618    2.897   38.3   12.4   285   13.6 
2025-09-15 23:20 UT   09 04 55.4   +15 33 21     3.610    2.898   38.9   12.6   285   13.6 
2025-09-16 00:00 UT   09 04 57.8   +15 33 12     3.610    2.898   38.9   12.6   285   13.6 
2025-09-17 00:00 UT   09 06 23.8   +15 27 41     3.601    2.898   39.6   12.8   285   13.6 
2025-09-18 00:00 UT   09 07 49.3   +15 22 09     3.593    2.899   40.2   12.9   286   13.6 
2025-09-19 00:00 UT   09 09 14.6   +15 16 37     3.584    2.899   40.8   13.1   286   13.6 
2025-09-20 00:00 UT   09 10 39.4   +15 11 04     3.575    2.899   41.4   13.3   286   13.6 
2025-09-21 00:00 UT   09 12 03.9   +15 05 30     3.566    2.900   42.1   13.4   286   13.6 
2025-09-22 00:00 UT   09 13 28.1   +14 59 55     3.557    2.900   42.7   13.6   286   13.6 
2025-09-23 00:00 UT   09 14 51.8   +14 54 20     3.548    2.900   43.3   13.7   286   13.6 
2025-09-24 00:00 UT   09 16 15.2   +14 48 44     3.538    2.901   43.9   13.9   286   13.6 
2025-09-25 00:00 UT   09 17 38.2   +14 43 08     3.529    2.901   44.6   14.0   287   13.6 
2025-09-26 00:00 UT   09 19 00.8   +14 37 32     3.519    2.901   45.2   14.2   287   13.6 
2025-09-27 00:00 UT   09 20 23.0   +14 31 55     3.509    2.902   45.8   14.4   287   13.6 
2025-09-28 00:00 UT   09 21 44.8   +14 26 18     3.499    2.902   46.5   14.5   287   13.6 
2025-09-29 00:00 UT   09 23 06.2   +14 20 41     3.490    2.902   47.1   14.7   287   13.6 
2025-09-30 00:00 UT   09 24 27.2   +14 15 04     3.479    2.903   47.8   14.8   287   13.6 
2025-10-01 00:00 UT   09 25 47.8   +14 09 27     3.469    2.903   48.4   14.9   287   13.6 
2025-10-02 00:00 UT   09 27 07.9   +14 03 50     3.459    2.903   49.1   15.1   287   13.6 
2025-10-03 00:00 UT   09 28 27.6   +13 58 14     3.449    2.903   49.7   15.2   288   13.6 
2025-10-04 00:00 UT   09 29 46.9   +13 52 37     3.438    2.904   50.4   15.4   288   13.6 
2025-10-05 00:00 UT   09 31 05.8   +13 47 01     3.427    2.904   51.0   15.5   288   13.6 
2025-10-06 00:00 UT   09 32 24.2   +13 41 26     3.417    2.904   51.7   15.7   288   13.6 
2025-10-07 00:00 UT   09 33 42.2   +13 35 50     3.406    2.905   52.3   15.8   288   13.6 
2025-10-08 00:00 UT   09 34 59.7   +13 30 16     3.395    2.905   53.0   15.9   288   13.6 
2025-10-09 00:00 UT   09 36 16.8   +13 24 42     3.384    2.905   53.6   16.1   288   13.6 


    Terminology:
            
    delta:  distance between minor planet and earth in AU
    radius: distance between minor planet and sun in AU
    magn:   magnitude (brightness) estimate    
    ra:     right ascension in hours (24h = 360deg)
    dec:    declination in degrees
    elong:  elongation in degrees (angle sun-earth-minor planet)    
    phase:  phase angle in degrees (angle sun-minor planet-earth)        
    AU:     Astronomical Unit (mean distance between earth and sun: 149597870.7 km
    

Orbital elements provided by the MPC (Minor Planet Center).
Calculations by a modified version of AAPlus, a C# implementation of the AA+ project by PJ Naughter from the algorithms presented in the book "Astronomical Algorithms" by Jean Meeus.
NGC2000 dso catalog and star labels from VizieR as provided by the Strasbourg astronomical Data Center.
Tycho2 catalog from the ESO archive.